カタログに戻る

HAWK-A

運用中軍事SSO
NORAD 43765·PAYLOAD·🇺🇸 United States

打ち上げ Dec 3, 2018 から Vandenberg Space Force Base

Loading…

次のパス (今後24時間)

TLE

最新Source: Space-Track

元期: Sep 14, 2026, 09:06 UTC

1 43765U 18099H   26257.37964618  .00004760  00000-0  18713-3 0  9998
2 43765  97.3818 308.4692 0033073 333.6044  26.3508 15.25647529426691

AllMySatでHAWK-Aをリアルタイム追跡

Download on the App Store